Home   Weather   Starnberg   Past weeks

Flag for Germany Past Weather in Starnberg, Bavaria, Germany — Yesterday and Last 2 Weeks

41 °F

Partly sunny.

Feels Like: 38 °F
Forecast: 35 / 50 °F
Wind: 5 mph from Southwest

Location: Oberpfaffenhofen

Current Time: Oct 21, 2016 at 6:48:01 PM

Latest Report: Oct 21, 2016 at 5:50 PM

Visibility: N/A

Pressure: 29.98 "Hg (27.88 "Hg at 590m altitude)

Humidity: 93%

Dew Point: 39 °F

Location of StarnbergLocation

Past Weather in Starnberg — Graph


Starnberg Temperature Yesterday

Maximum temperature yesterday: 52 °F (at 2:20 PM)
Minimum temperature yesterday: 43 °F (at 7:50 AM)
Average temperature yesterday: 47 °F

High & Low Weather Summary for the Past Weeks

High61 °F (Oct 17, 1:20 PM)100% (Oct 7, 6:50 AM)30.24 "Hg (Oct 7, 6:50 AM)
Low34 °F (Oct 13, 6:50 AM)58% (Oct 20, 2:20 PM)29.71 "Hg (Oct 14, 4:20 PM)
Average47 °F87%30.03 "Hg
* Reported Oct 6 5:20 PM — Oct 21 5:20 PM, Starnberg, Weather by CustomWeather, © 2016

Note: Actual official high and low records may vary slightly from our data, if they occured in-between our weather recording intervals... More about our weather records


Starnberg Weather History for the Previous 24 Hours

Scroll right to see more
Time TempWeatherWind HumidityBarometerVisibility
5:20 PM
Fri, Oct 21
41 °FPartly sunny.6 mph93%29.98 "HgN/A
4:50 PM41 °FPartly sunny.6 mph87%29.98 "HgN/A
4:20 PM41 °FLight rain. Partly sunny.7 mph87%29.98 "HgN/A
3:50 PM41 °FSprinkles. Broken clouds.10 mph87%29.95 "Hg6 mi
3:20 PM43 °FSprinkles. Partly sunny.6 mph87%29.95 "HgN/A
2:50 PM43 °FLight rain. Broken clouds.6 mph87%29.95 "HgN/A
2:20 PM43 °FSprinkles. Cloudy.7 mph87%29.95 "HgN/A
1:50 PM41 °FSprinkles. Partly sunny.7 mph93%29.95 "HgN/A
1:20 PM41 °FSprinkles. Partly sunny.7 mph93%29.95 "HgN/A
12:50 PM43 °FSprinkles. Broken clouds.8 mph87%29.95 "Hg5 mi
12:20 PM43 °FPartly sunny.7 mph93%29.95 "HgN/A
11:50 AM43 °FPartly sunny.9 mph87%29.95 "HgN/A
11:20 AM43 °FPartly sunny.7 mph87%29.95 "HgN/A
10:50 AM43 °FBroken clouds.8 mph87%29.95 "HgN/A
10:20 AM41 °FPartly sunny.9 mph93%29.95 "Hg6 mi
9:50 AM41 °FLight rain. Broken clouds.6 mph100%29.95 "Hg3 mi
9:20 AM43 °FLight rain. Partly sunny.10 mph87%29.95 "Hg4 mi
8:50 AM43 °FLight rain. Partly sunny.8 mph87%29.92 "Hg4 mi
8:20 AM43 °FLight rain. Broken clouds.13 mph87%29.92 "HgN/A
7:50 AM43 °FLight rain. Broken clouds.15 mph87%29.92 "HgN/A
7:20 AM43 °FLight rain. Partly cloudy.12 mph87%29.89 "HgN/A
6:50 AM43 °FLight rain. Partly cloudy.10 mph87%29.89 "HgN/A
6:50 PM
Thu, Oct 20
45 °FClear.8 mph71%29.92 "Hg10 mi
6:20 PM46 °FClear.10 mph66%29.92 "Hg10 mi
Weather by CustomWeather, © 2016

See weather overviewHow to use our weather pages